contact:dominique.lefevre@mio.osupytheas.fr, maurice.libes@osupytheas.fr, didier.mallarino@osupytheas.fr
Project:EMSO http://www.emso-fr.org/EMSO-France
Depth: 2436.0 m
Title:EMSO Ligure Ouest : Data MII capteur AQUADOPP
Date,Latitude,Longitude,X_East,Y_North,Z_Up,Amplitude_X,Amplitude_Y,Amplitude_Z,Batterie,SoundSpeed,Heading,Pitch,Roll,Pressure,TIS,Speed,Direction
, degrees North, degrees East, m.s-1, m.s-1,m.s-1, 1, 1, 1, Volt, m.s-1, degree, degree, degree, dbar, degree_C, m.s-1, degree
2022-03-23T00:04:03,42.805,6.029,-0.024,0.043,0.037,100.0,103.0,100.0,13.4,1505.2,329.2,-0.8,1.8,2470.754,13.28,0.049,330.8
2022-03-23T00:07:03,42.805,6.029,0.005,0.018,0.039,100.0,101.0,101.0,13.3,1505.2,328.1,-0.7,1.8,2470.729,13.28,0.018,15.5
2022-03-23T00:10:03,42.805,6.029,-0.02,-0.002,0.025,100.0,101.0,101.0,13.3,1505.2,323.7,-0.8,1.8,2470.749,13.29,0.02,264.3
2022-03-23T00:13:03,42.805,6.029,0.016,0.015,0.024,99.0,103.0,101.0,13.4,1505.2,330.1,-0.8,1.8,2470.705,13.29,0.021,46.9
2022-03-23T00:16:03,42.805,6.029,-0.017,0.021,-0.001,102.0,102.0,101.0,13.4,1505.2,325.9,-0.8,1.8,2470.702,13.29,0.027,321.0
2022-03-23T00:19:03,42.805,6.029,-0.012,0.028,0.054,100.0,104.0,100.0,13.3,1505.2,322.3,-0.7,1.8,2470.741,13.29,0.03,336.8
2022-03-23T00:22:03,42.805,6.029,0.005,0.003,0.031,102.0,102.0,99.0,13.4,1505.2,328.1,-0.7,1.8,2470.728,13.29,0.005,59.0
2022-03-23T00:25:03,42.805,6.029,-0.008,0.002,0.036,101.0,102.0,100.0,13.4,1505.2,328.7,-0.8,1.8,2470.711,13.29,0.008,284.0
2022-03-23T00:28:03,42.805,6.029,-0.017,0.005,0.004,101.0,104.0,100.0,13.4,1505.2,325.0,-0.7,1.8,2470.729,13.29,0.017,286.4
2022-03-23T00:31:03,42.805,6.029,0.003,0.005,0.049,101.0,102.0,101.0,13.4,1505.2,323.1,-0.8,1.8,2470.698,13.29,0.005,31.0
2022-03-23T00:34:03,42.805,6.029,0.001,-0.002,0.017,100.0,105.0,99.0,13.4,1505.2,331.7,-0.8,1.8,2470.742,13.29,0.002,153.4
2022-03-23T00:37:03,42.805,6.029,0.0,0.021,0.064,100.0,102.0,101.0,13.4,1505.2,325.4,-0.8,1.8,2470.725,13.29,0.021,0.0
2022-03-23T00:40:03,42.805,6.029,0.023,0.005,0.011,101.0,102.0,100.0,13.3,1505.2,327.9,-0.8,1.8,2470.725,13.29,0.023,77.7
2022-03-23T00:43:03,42.805,6.029,0.0,-0.004,0.002,101.0,103.0,100.0,13.4,1505.2,322.5,-0.7,1.8,2470.736,13.29,0.004,180.0
2022-03-23T00:46:03,42.805,6.029,-0.004,0.001,0.036,101.0,102.0,100.0,13.3,1505.2,330.2,-0.8,1.8,2470.697,13.29,0.004,284.0
2022-03-23T00:49:03,42.805,6.029,-0.002,0.0,0.01,100.0,101.0,100.0,13.4,1505.2,326.8,-0.7,1.8,2470.706,13.29,0.002,270.0
2022-03-23T00:52:03,42.805,6.029,-0.016,0.008,-0.008,102.0,102.0,102.0,13.4,1505.2,329.5,-0.7,1.9,2470.674,13.29,0.017,296.6
2022-03-23T00:55:03,42.805,6.029,-0.002,0.003,-0.004,101.0,102.0,101.0,13.4,1505.2,330.8,-0.7,1.8,2470.64,13.29,0.003,326.3
2022-03-23T00:58:03,42.805,6.029,-0.011,-0.005,-0.021,101.0,101.0,100.0,13.3,1505.2,327.8,-0.7,1.8,2470.672,13.29,0.012,245.6
2022-03-23T01:04:03,42.805,6.029,0.001,0.008,0.034,103.0,104.0,103.0,13.4,1505.2,326.3,-0.8,1.8,2470.722,13.28,0.008,7.1
2022-03-23T01:07:03,42.805,6.029,-0.006,-0.012,0.014,100.0,101.0,100.0,13.4,1505.2,325.9,-0.7,1.8,2470.737,13.28,0.013,206.6
2022-03-23T01:10:03,42.805,6.029,0.002,0.015,0.034,101.0,103.0,100.0,13.4,1505.2,328.8,-0.7,1.9,2470.73,13.29,0.015,7.6
2022-03-23T01:13:03,42.805,6.029,0.001,-0.001,-0.009,103.0,100.0,100.0,13.4,1505.2,327.2,-0.7,1.8,2470.663,13.29,0.001,135.0
2022-03-23T01:16:03,42.805,6.029,-0.016,0.009,-0.01,101.0,102.0,100.0,13.4,1505.2,325.3,-0.8,1.8,2470.686,13.29,0.018,299.4
2022-03-23T01:19:03,42.805,6.029,-0.005,0.0,0.021,102.0,101.0,101.0,13.3,1505.2,330.3,-0.8,1.8,2470.64,13.29,0.005,270.0
2022-03-23T01:22:03,42.805,6.029,-0.021,0.009,0.034,101.0,100.0,101.0,13.3,1505.2,323.4,-0.8,1.8,2470.662,13.29,0.022,293.2
2022-03-23T01:25:03,42.805,6.029,-0.013,0.024,0.045,102.0,102.0,100.0,13.4,1505.2,329.9,-0.8,1.8,2470.682,13.29,0.027,331.6
2022-03-23T01:28:03,42.805,6.029,-0.005,0.009,0.025,101.0,102.0,100.0,13.4,1505.2,329.8,-0.8,1.8,2470.668,13.29,0.01,330.9
2022-03-23T01:31:03,42.805,6.029,-0.014,0.009,0.01,102.0,101.0,101.0,13.4,1505.2,325.9,-0.7,1.8,2470.675,13.29,0.016,302.7
2022-03-23T01:34:03,42.805,6.029,-0.002,0.004,0.021,101.0,102.0,100.0,13.4,1505.2,332.6,-0.8,1.8,2470.652,13.29,0.004,333.4
2022-03-23T01:37:03,42.805,6.029,-0.021,0.01,0.032,102.0,101.0,100.0,13.4,1505.2,325.8,-0.8,1.8,2470.671,13.29,0.023,295.5
2022-03-23T01:40:03,42.805,6.029,0.018,-0.004,-0.022,100.0,103.0,100.0,13.4,1505.2,322.9,-0.7,1.8,2470.635,13.29,0.018,102.5
2022-03-23T01:43:03,42.805,6.029,-0.017,0.021,0.026,102.0,102.0,99.0,13.4,1505.2,323.9,-0.8,1.8,2470.634,13.29,0.027,321.0
2022-03-23T01:46:03,42.805,6.029,-0.009,0.022,-0.014,100.0,101.0,102.0,13.4,1505.2,329.2,-0.8,1.8,2470.658,13.29,0.023,337.8
2022-03-23T01:49:03,42.805,6.029,-0.026,-0.006,-0.01,101.0,103.0,100.0,13.4,1505.2,329.6,-0.8,1.8,2470.643,13.29,0.026,257.0
2022-03-23T01:52:03,42.805,6.029,-0.016,0.003,0.012,100.0,101.0,101.0,13.3,1505.2,323.3,-0.7,1.8,2470.617,13.29,0.016,280.6
2022-03-23T01:55:03,42.805,6.029,-0.003,0.01,0.022,101.0,102.0,101.0,13.3,1505.2,323.5,-0.8,1.8,2470.668,13.29,0.01,343.3
2022-03-23T01:58:03,42.805,6.029,-0.02,0.007,0.012,102.0,100.0,101.0,13.4,1505.2,324.2,-0.7,1.8,2470.618,13.29,0.021,289.3
2022-03-23T02:04:03,42.805,6.029,-0.021,0.021,0.01,101.0,102.0,101.0,13.3,1505.2,327.7,-0.8,1.8,2470.659,13.28,0.029,315.0
2022-03-23T02:07:03,42.805,6.029,-0.009,0.012,0.028,101.0,102.0,100.0,13.4,1505.2,323.3,-0.8,1.8,2470.682,13.29,0.015,323.1
2022-03-23T02:10:03,42.805,6.029,0.014,0.023,0.051,100.0,100.0,100.0,13.3,1505.2,332.1,-0.7,1.8,2470.698,13.29,0.026,31.3
2022-03-23T02:13:03,42.805,6.029,-0.018,0.015,-0.006,101.0,101.0,101.0,13.3,1505.2,324.6,-0.8,1.8,2470.641,13.29,0.023,309.8
2022-03-23T02:16:03,42.805,6.029,-0.024,0.0,0.012,102.0,100.0,99.0,13.3,1505.2,330.2,-0.8,1.8,2470.654,13.29,0.024,270.0
2022-03-23T02:19:03,42.805,6.029,-0.013,0.011,0.018,100.0,102.0,101.0,13.3,1505.2,327.1,-0.8,1.8,2470.656,13.29,0.017,310.2
2022-03-23T02:22:03,42.805,6.029,0.005,-0.005,-0.001,102.0,100.0,101.0,13.4,1505.2,325.1,-0.7,1.8,2470.655,13.29,0.007,135.0
2022-03-23T02:25:03,42.805,6.029,-0.01,0.0,-0.008,101.0,102.0,100.0,13.4,1505.2,329.8,-0.7,1.8,2470.629,13.29,0.01,270.0
2022-03-23T02:28:03,42.805,6.029,0.01,-0.014,0.0,102.0,102.0,100.0,13.4,1505.2,325.6,-0.8,1.8,2470.634,13.29,0.017,144.5
2022-03-23T02:31:03,42.805,6.029,0.013,0.02,0.0,101.0,102.0,101.0,13.4,1505.2,323.6,-0.8,1.8,2470.572,13.29,0.023,33.0
2022-03-23T02:34:03,42.805,6.029,-0.004,0.005,0.013,100.0,101.0,101.0,13.4,1505.2,326.2,-0.7,1.8,2470.645,13.29,0.006,321.3
2022-03-23T02:37:03,42.805,6.029,-0.017,0.006,0.026,99.0,102.0,100.0,13.4,1505.2,327.7,-0.8,1.8,2470.611,13.29,0.018,289.4
2022-03-23T02:40:03,42.805,6.029,-0.001,0.02,0.027,101.0,102.0,101.0,13.3,1505.2,331.7,-0.8,1.8,2470.629,13.29,0.02,357.1
2022-03-23T02:43:03,42.805,6.029,-0.035,-0.003,0.011,100.0,101.0,101.0,13.4,1505.2,325.5,-0.8,1.8,2470.678,13.29,0.035,265.1
2022-03-23T02:46:03,42.805,6.029,-0.011,-0.012,0.005,101.0,102.0,100.0,13.3,1505.2,327.9,-0.8,1.8,2470.602,13.29,0.016,222.5
2022-03-23T02:49:03,42.805,6.029,0.002,0.0,0.014,101.0,101.0,100.0,13.4,1505.2,329.2,-0.8,1.8,2470.62,13.29,0.002,90.0
2022-03-23T02:52:03,42.805,6.029,-0.012,0.006,0.0,101.0,102.0,100.0,13.4,1505.2,327.3,-0.7,1.8,2470.639,13.29,0.013,296.6
2022-03-23T02:55:03,42.805,6.029,-0.033,0.018,0.019,103.0,102.0,99.0,13.4,1505.2,324.7,-0.7,1.8,2470.623,13.29,0.037,298.6
2022-03-23T02:58:03,42.805,6.029,0.011,-0.002,0.001,100.0,101.0,101.0,13.4,1505.2,328.7,-0.8,1.8,2470.613,13.29,0.011,100.3
2022-03-23T03:04:03,42.805,6.029,-0.016,-0.006,0.009,102.0,100.0,100.0,13.4,1505.2,326.9,-0.7,1.8,2470.631,13.29,0.017,249.4
2022-03-23T03:07:03,42.805,6.029,-0.012,-0.007,0.008,101.0,101.0,100.0,13.4,1505.2,324.2,-0.7,1.8,2470.659,13.29,0.013,239.7
2022-03-23T03:10:03,42.805,6.029,0.021,-0.042,-0.038,100.0,102.0,101.0,13.4,1505.2,329.3,-0.8,1.8,2470.649,13.29,0.046,153.4
2022-03-23T03:13:03,42.805,6.029,-0.002,0.0,0.002,101.0,102.0,101.0,13.3,1505.2,329.0,-0.8,1.8,2470.62,13.29,0.002,270.0
2022-03-23T03:16:03,42.805,6.029,-0.016,-0.005,-0.004,101.0,100.0,101.0,13.4,1505.2,323.5,-0.8,1.8,2470.642,13.29,0.016,252.6
2022-03-23T03:19:03,42.805,6.029,-0.009,-0.002,0.005,101.0,103.0,101.0,13.4,1505.2,326.0,-0.7,1.8,2470.652,13.29,0.009,257.5
2022-03-23T03:22:03,42.805,6.029,-0.012,0.0,0.0,101.0,101.0,100.0,13.4,1505.2,330.2,-0.8,1.8,2470.617,13.29,0.012,270.0
2022-03-23T03:25:03,42.805,6.029,-0.006,0.002,-0.007,101.0,103.0,100.0,13.4,1505.2,327.8,-0.7,1.8,2470.6,13.29,0.006,288.4
2022-03-23T03:28:03,42.805,6.029,-0.005,-0.02,-0.017,102.0,101.0,100.0,13.4,1505.2,332.7,-0.7,1.9,2470.565,13.29,0.02,194.0
2022-03-23T03:31:03,42.805,6.029,-0.001,-0.008,0.009,101.0,102.0,100.0,13.4,1505.2,331.2,-0.8,1.8,2470.61,13.29,0.008,187.1
2022-03-23T03:34:03,42.805,6.029,-0.002,-0.012,-0.004,100.0,102.0,100.0,13.4,1505.2,329.1,-0.8,1.8,2470.621,13.29,0.012,189.5
2022-03-23T03:37:03,42.805,6.029,-0.022,-0.002,0.009,103.0,100.0,101.0,13.4,1505.2,331.4,-0.8,1.8,2470.582,13.29,0.022,264.8
2022-03-23T03:40:03,42.805,6.029,-0.051,0.013,0.031,100.0,101.0,100.0,13.4,1505.2,329.0,-0.8,1.8,2470.578,13.29,0.052,284.3
2022-03-23T03:43:03,42.805,6.029,-0.007,-0.012,-0.011,103.0,101.0,100.0,13.4,1505.2,331.5,-0.8,1.8,2470.599,13.29,0.013,210.3
2022-03-23T03:46:03,42.805,6.029,-0.016,0.012,0.028,102.0,100.0,100.0,13.3,1505.2,329.6,-0.7,1.8,2470.582,13.29,0.02,306.9
2022-03-23T03:49:03,42.805,6.029,-0.032,-0.004,0.002,101.0,101.0,101.0,13.3,1505.2,328.6,-0.8,1.8,2470.592,13.29,0.032,262.9
2022-03-23T03:52:03,42.805,6.029,-0.016,0.006,0.002,101.0,101.0,101.0,13.3,1505.2,328.8,-0.8,1.8,2470.613,13.29,0.017,290.6
2022-03-23T03:55:03,42.805,6.029,0.022,-0.038,-0.018,100.0,102.0,101.0,13.3,1505.2,329.0,-0.7,1.8,2470.628,13.29,0.043,149.9
2022-03-23T03:58:03,42.805,6.029,-0.014,-0.015,0.001,101.0,102.0,101.0,13.4,1505.2,330.4,-0.7,1.9,2470.584,13.29,0.02,223.0
2022-03-23T04:04:03,42.805,6.029,-0.005,0.003,0.017,102.0,101.0,100.0,13.4,1505.2,330.1,-0.8,1.8,2470.607,13.29,0.005,301.0
2022-03-23T04:07:03,42.805,6.029,-0.016,0.019,0.025,101.0,99.0,100.0,13.4,1505.2,328.9,-0.7,1.8,2470.581,13.29,0.024,319.9
2022-03-23T04:10:03,42.805,6.029,-0.009,0.003,0.039,101.0,101.0,100.0,13.3,1505.2,323.8,-0.7,1.8,2470.592,13.29,0.009,288.4
2022-03-23T04:13:03,42.805,6.029,-0.029,0.008,0.02,101.0,101.0,101.0,13.4,1505.2,330.0,-0.7,1.8,2470.586,13.29,0.03,285.4
2022-03-23T04:16:03,42.805,6.029,-0.019,0.003,0.002,100.0,104.0,101.0,13.4,1505.2,328.5,-0.7,1.9,2470.63,13.29,0.019,279.0
2022-03-23T04:19:03,42.805,6.029,-0.002,0.0,0.005,102.0,101.0,99.0,13.4,1505.2,326.9,-0.7,1.8,2470.578,13.29,0.002,270.0
2022-03-23T04:22:03,42.805,6.029,-0.009,0.003,0.005,100.0,101.0,101.0,13.4,1505.2,327.1,-0.8,1.8,2470.564,13.29,0.009,288.4
2022-03-23T04:25:03,42.805,6.029,0.006,-0.008,0.011,101.0,102.0,102.0,13.4,1505.2,330.2,-0.8,1.8,2470.602,13.29,0.01,143.1
2022-03-23T04:28:03,42.805,6.029,-0.022,0.0,0.01,101.0,102.0,102.0,13.4,1505.2,329.5,-0.8,1.8,2470.6,13.29,0.022,270.0
2022-03-23T04:31:03,42.805,6.029,-0.022,-0.007,-0.004,102.0,101.0,100.0,13.4,1505.2,327.7,-0.8,1.8,2470.592,13.29,0.023,252.4
2022-03-23T04:34:03,42.805,6.029,0.008,-0.008,0.019,101.0,100.0,101.0,13.4,1505.2,325.7,-0.8,1.8,2470.593,13.29,0.011,135.0
2022-03-23T04:37:03,42.805,6.029,0.019,-0.012,0.031,101.0,101.0,102.0,13.3,1505.2,326.3,-0.8,1.9,2470.571,13.29,0.022,122.3
2022-03-23T04:40:03,42.805,6.029,0.007,-0.011,0.0,101.0,100.0,101.0,13.3,1505.2,325.4,-0.8,1.8,2470.61,13.29,0.013,147.5
2022-03-23T04:43:03,42.805,6.029,0.011,-0.002,0.045,102.0,101.0,100.0,13.4,1505.2,322.7,-0.7,1.8,2470.585,13.29,0.011,100.3
2022-03-23T04:46:03,42.805,6.029,0.016,-0.013,0.008,101.0,102.0,101.0,13.4,1505.2,330.1,-0.7,1.8,2470.571,13.29,0.02,129.1
2022-03-23T04:49:03,42.805,6.029,-0.005,0.005,0.003,100.0,100.0,101.0,13.4,1505.2,327.5,-0.7,1.8,2470.551,13.29,0.007,315.0
2022-03-23T04:52:03,42.805,6.029,-0.006,-0.019,-0.001,101.0,101.0,100.0,13.3,1505.2,327.4,-0.8,1.8,2470.588,13.29,0.019,197.5
2022-03-23T04:55:03,42.805,6.029,0.004,-0.01,0.019,100.0,102.0,101.0,13.4,1505.2,325.5,-0.8,1.8,2470.603,13.29,0.01,158.2
2022-03-23T04:58:03,42.805,6.029,-0.001,-0.007,-0.004,100.0,103.0,99.0,13.4,1505.2,327.2,-0.7,1.8,2470.62,13.29,0.007,188.1
2022-03-23T05:04:03,42.805,6.029,0.0,0.001,-0.003,101.0,101.0,100.0,13.4,1505.2,324.3,-0.7,1.8,2470.6,13.29,0.001,0.0
2022-03-23T05:07:03,42.805,6.029,-0.014,0.011,0.031,100.0,101.0,100.0,13.3,1505.2,327.3,-0.8,1.8,2470.61,13.29,0.017,308.2
2022-03-23T05:10:03,42.805,6.029,-0.002,-0.006,-0.007,100.0,101.0,101.0,13.4,1505.2,325.4,-0.8,1.8,2470.608,13.29,0.006,198.4
2022-03-23T05:13:03,42.805,6.029,-0.028,0.002,-0.006,100.0,100.0,100.0,13.3,1505.2,325.6,-0.7,1.8,2470.604,13.29,0.028,274.1
2022-03-23T05:16:03,42.805,6.029,0.0,-0.008,0.012,101.0,101.0,100.0,13.4,1505.2,324.8,-0.8,1.8,2470.606,13.29,0.008,180.0
2022-03-23T05:19:03,42.805,6.029,-0.038,0.019,0.042,100.0,101.0,101.0,13.3,1505.2,329.8,-0.8,1.8,2470.588,13.29,0.042,296.6
2022-03-23T05:22:03,42.805,6.029,-0.006,-0.007,0.009,103.0,100.0,100.0,13.3,1505.2,326.2,-0.7,1.9,2470.618,13.29,0.009,220.6
2022-03-23T05:25:03,42.805,6.029,0.014,-0.001,0.001,102.0,101.0,100.0,13.4,1505.2,322.5,-0.7,1.8,2470.604,13.29,0.014,94.1
2022-03-23T05:28:03,42.805,6.029,-0.001,0.006,0.032,100.0,102.0,100.0,13.3,1505.2,325.8,-0.8,1.8,2470.635,13.29,0.006,350.5
2022-03-23T05:31:03,42.805,6.029,-0.023,0.027,0.012,101.0,100.0,101.0,13.3,1505.2,325.7,-0.7,1.8,2470.614,13.29,0.035,319.6
2022-03-23T05:34:03,42.805,6.029,-0.016,-0.016,0.017,100.0,100.0,101.0,13.4,1505.2,331.5,-0.8,1.8,2470.601,13.29,0.022,225.0
2022-03-23T05:37:03,42.805,6.029,-0.005,0.001,0.025,100.0,102.0,100.0,13.4,1505.2,327.2,-0.7,1.8,2470.592,13.29,0.005,281.3
2022-03-23T05:40:03,42.805,6.029,-0.027,0.02,0.012,101.0,101.0,100.0,13.3,1505.2,328.7,-0.8,1.8,2470.603,13.29,0.033,306.5
2022-03-23T05:43:03,42.805,6.029,-0.002,0.0,0.004,101.0,101.0,100.0,13.3,1505.2,324.0,-0.8,1.8,2470.6,13.29,0.002,270.0
2022-03-23T05:46:03,42.805,6.029,-0.01,-0.007,0.01,101.0,102.0,99.0,13.3,1505.2,326.9,-0.8,1.8,2470.606,13.29,0.012,235.0
2022-03-23T05:49:03,42.805,6.029,-0.018,0.009,-0.011,100.0,100.0,100.0,13.3,1505.2,328.9,-0.7,1.8,2470.617,13.29,0.02,296.6
2022-03-23T05:52:03,42.805,6.029,-0.024,-0.003,0.039,101.0,100.0,101.0,13.4,1505.2,325.9,-0.8,1.8,2470.615,13.29,0.024,262.9
2022-03-23T05:55:03,42.805,6.029,-0.008,0.027,0.021,101.0,100.0,100.0,13.4,1505.2,325.4,-0.7,1.9,2470.598,13.29,0.028,343.5
2022-03-23T05:58:03,42.805,6.029,0.0,-0.002,-0.006,102.0,101.0,99.0,13.3,1505.2,323.4,-0.8,1.8,2470.594,13.29,0.002,180.0
2022-03-23T06:04:03,42.805,6.029,0.011,0.0,0.056,101.0,100.0,100.0,13.4,1505.2,323.5,-0.7,1.8,2470.639,13.29,0.011,90.0
2022-03-23T06:07:03,42.805,6.029,-0.012,0.004,0.018,99.0,102.0,101.0,13.4,1505.2,324.9,-0.8,1.8,2470.619,13.29,0.012,288.4
2022-03-23T06:10:03,42.805,6.029,-0.032,0.006,0.016,100.0,101.0,100.0,13.4,1505.2,325.3,-0.8,1.8,2470.625,13.29,0.032,280.6
2022-03-23T06:13:03,42.805,6.029,-0.033,0.007,0.009,101.0,102.0,100.0,13.4,1505.2,325.8,-0.8,1.9,2470.621,13.29,0.033,282.0
2022-03-23T06:16:03,42.805,6.029,-0.045,0.0,-0.03,100.0,101.0,100.0,13.4,1505.2,328.6,-0.8,1.8,2470.617,13.29,0.045,270.0
2022-03-23T06:19:03,42.805,6.029,-0.014,0.007,0.011,100.0,101.0,100.0,13.4,1505.2,328.3,-0.8,1.8,2470.622,13.29,0.015,296.6
2022-03-23T06:22:03,42.805,6.029,-0.019,0.012,0.02,100.0,100.0,99.0,13.4,1505.2,323.6,-0.7,1.8,2470.581,13.29,0.022,302.3
2022-03-23T06:25:03,42.805,6.029,-0.007,-0.018,-0.009,101.0,99.0,101.0,13.3,1505.2,325.4,-0.7,1.9,2470.624,13.29,0.019,201.2
2022-03-23T06:28:03,42.805,6.029,0.01,0.005,0.026,99.0,102.0,99.0,13.3,1505.2,323.0,-0.8,1.8,2470.638,13.29,0.011,63.4
2022-03-23T06:31:03,42.805,6.029,0.007,0.008,0.012,101.0,101.0,100.0,13.4,1505.2,326.8,-0.8,1.8,2470.588,13.29,0.01,41.2
2022-03-23T06:34:03,42.805,6.029,-0.026,0.015,0.032,100.0,101.0,100.0,13.4,1505.2,327.8,-0.8,1.8,2470.624,13.29,0.03,300.0
2022-03-23T06:37:03,42.805,6.029,-0.023,0.017,0.003,101.0,99.0,101.0,13.3,1505.2,328.0,-0.7,1.8,2470.608,13.29,0.028,306.5
2022-03-23T06:40:03,42.805,6.029,-0.034,0.02,0.039,102.0,100.0,99.0,13.4,1505.2,326.0,-0.7,1.8,2470.623,13.29,0.039,300.5
2022-03-23T06:43:03,42.805,6.029,-0.022,0.005,0.051,101.0,99.0,100.0,13.4,1505.2,333.4,-0.7,1.8,2470.596,13.29,0.022,282.8
2022-03-23T06:46:03,42.805,6.029,0.005,0.005,0.051,100.0,100.0,99.0,13.4,1505.2,326.9,-0.8,1.8,2470.62,13.29,0.007,45.0
2022-03-23T06:49:03,42.805,6.029,-0.027,-0.001,-0.003,101.0,100.0,101.0,13.4,1505.2,328.9,-0.8,1.8,2470.625,13.29,0.027,267.9
2022-03-23T06:52:03,42.805,6.029,-0.01,-0.003,-0.004,101.0,101.0,100.0,13.4,1505.2,332.2,-0.7,1.8,2470.634,13.29,0.01,253.3
2022-03-23T06:55:03,42.805,6.029,-0.015,-0.002,0.027,102.0,101.0,99.0,13.4,1505.2,326.9,-0.8,1.8,2470.616,13.29,0.015,262.4
2022-03-23T06:58:03,42.805,6.029,-0.029,0.013,-0.011,101.0,101.0,100.0,13.4,1505.2,331.5,-0.8,1.8,2470.625,13.29,0.031,294.1
2022-03-23T07:04:03,42.805,6.029,-0.003,0.006,0.031,100.0,101.0,100.0,13.3,1505.2,326.1,-0.8,1.9,2470.658,13.28,0.006,333.4
2022-03-23T07:07:03,42.805,6.029,-0.006,0.001,0.028,99.0,100.0,101.0,13.4,1505.2,331.6,-0.8,1.8,2470.653,13.29,0.006,279.5
2022-03-23T07:10:03,42.805,6.029,-0.035,-0.018,-0.036,100.0,100.0,99.0,13.4,1505.2,330.9,-0.7,1.8,2470.659,13.29,0.039,242.8
2022-03-23T07:13:03,42.805,6.029,-0.041,-0.009,0.005,101.0,100.0,100.0,13.4,1505.2,328.7,-0.7,1.8,2470.672,13.29,0.041,257.6
2022-03-23T07:16:03,42.805,6.029,-0.021,-0.008,0.006,100.0,100.0,100.0,13.4,1505.2,327.9,-0.7,1.8,2470.643,13.29,0.022,249.1
2022-03-23T07:19:03,42.805,6.029,-0.015,0.01,0.018,101.0,102.0,98.0,13.3,1505.2,325.6,-0.8,1.8,2470.629,13.29,0.018,303.7
2022-03-23T07:22:03,42.805,6.029,-0.013,-0.014,-0.027,98.0,101.0,101.0,13.3,1505.2,327.0,-0.7,1.8,2470.642,13.29,0.019,222.9
2022-03-23T07:25:03,42.805,6.029,-0.017,-0.027,-0.002,100.0,100.0,100.0,13.4,1505.2,329.5,-0.7,1.8,2470.636,13.29,0.031,212.2
2022-03-23T07:28:03,42.805,6.029,-0.027,-0.005,0.027,100.0,101.0,99.0,13.3,1505.2,328.4,-0.7,1.8,2470.616,13.29,0.027,259.5
2022-03-23T07:31:03,42.805,6.029,-0.008,-0.023,-0.006,101.0,99.0,100.0,13.4,1505.2,328.1,-0.8,1.9,2470.652,13.29,0.024,199.2
2022-03-23T07:34:03,42.805,6.029,-0.015,-0.009,0.025,102.0,101.0,98.0,13.4,1505.2,326.0,-0.8,1.8,2470.625,13.29,0.017,239.0
2022-03-23T07:37:03,42.805,6.029,-0.014,0.0,0.001,100.0,101.0,100.0,13.3,1505.2,324.2,-0.8,1.8,2470.671,13.29,0.014,270.0
2022-03-23T07:40:03,42.805,6.029,-0.027,-0.015,-0.018,100.0,100.0,101.0,13.3,1505.2,325.2,-0.7,1.8,2470.689,13.29,0.03,240.9
2022-03-23T07:43:03,42.805,6.029,-0.014,-0.007,-0.001,102.0,101.0,100.0,13.3,1505.2,326.2,-0.7,1.8,2470.663,13.29,0.015,243.4
2022-03-23T07:46:03,42.805,6.029,-0.023,0.002,0.019,101.0,100.0,100.0,13.3,1505.2,325.3,-0.8,1.8,2470.679,13.29,0.023,275.0
2022-03-23T07:49:03,42.805,6.029,-0.033,0.017,-0.015,100.0,100.0,100.0,13.3,1505.2,330.3,-0.8,1.8,2470.637,13.29,0.037,297.3
2022-03-23T07:52:03,42.805,6.029,0.0,-0.003,0.001,101.0,101.0,100.0,13.4,1505.2,324.2,-0.8,1.8,2470.651,13.29,0.003,180.0
2022-03-23T07:55:03,42.805,6.029,-0.006,-0.019,0.008,101.0,100.0,100.0,13.4,1505.2,323.1,-0.8,1.8,2470.664,13.29,0.019,197.5
2022-03-23T07:58:03,42.805,6.029,-0.022,0.003,0.025,100.0,100.0,100.0,13.4,1505.2,326.5,-0.8,1.8,2470.617,13.29,0.022,277.8
2022-03-23T08:04:03,42.805,6.029,-0.003,-0.006,0.0,100.0,100.0,100.0,13.4,1505.2,324.2,-0.8,1.8,2470.715,13.28,0.006,206.6
2022-03-23T08:07:03,42.805,6.029,-0.006,-0.005,0.019,99.0,101.0,100.0,13.4,1505.2,325.3,-0.7,1.8,2470.726,13.29,0.007,230.2
2022-03-23T08:10:03,42.805,6.029,-0.004,-0.004,0.019,100.0,99.0,101.0,13.3,1505.2,324.8,-0.8,1.8,2470.681,13.29,0.005,225.0
2022-03-23T08:13:03,42.805,6.029,0.022,0.009,0.08,99.0,102.0,102.0,13.4,1505.2,322.0,-0.8,1.8,2470.691,13.29,0.023,67.8
2022-03-23T08:16:03,42.805,6.029,-0.029,-0.006,-0.051,101.0,101.0,101.0,13.3,1505.2,327.0,-0.8,1.8,2470.696,13.29,0.029,258.3
2022-03-23T08:19:03,42.805,6.029,-0.036,0.0,-0.021,100.0,101.0,100.0,13.4,1505.2,331.3,-0.7,1.8,2470.716,13.29,0.036,270.0
2022-03-23T08:22:03,42.805,6.029,0.0,-0.002,0.023,104.0,100.0,100.0,13.3,1505.2,323.4,-0.7,1.8,2470.661,13.29,0.002,180.0
2022-03-23T08:25:03,42.805,6.029,-0.028,0.007,0.015,102.0,102.0,100.0,13.4,1505.2,325.6,-0.7,1.8,2470.677,13.29,0.028,284.0
2022-03-23T08:28:03,42.805,6.029,-0.023,-0.003,0.023,100.0,100.0,100.0,13.4,1505.2,325.6,-0.8,1.8,2470.685,13.29,0.023,262.6
2022-03-23T08:31:03,42.805,6.029,-0.008,-0.012,0.002,102.0,101.0,101.0,13.4,1505.2,326.9,-0.8,1.9,2470.671,13.29,0.014,213.7
2022-03-23T08:34:03,42.805,6.029,-0.027,0.005,0.008,101.0,102.0,99.0,13.4,1505.2,325.3,-0.7,1.8,2470.722,13.29,0.027,280.5
2022-03-23T08:37:03,42.805,6.029,-0.035,0.01,-0.011,102.0,101.0,101.0,13.3,1505.2,325.7,-0.7,1.8,2470.688,13.29,0.036,285.9
2022-03-23T08:40:03,42.805,6.029,-0.026,0.013,0.028,101.0,101.0,100.0,13.4,1505.2,332.0,-0.8,1.8,2470.698,13.29,0.029,296.6
2022-03-23T08:43:03,42.805,6.029,-0.015,0.007,0.01,101.0,101.0,101.0,13.3,1505.2,324.0,-0.7,1.8,2470.664,13.29,0.016,295.0
2022-03-23T08:46:03,42.805,6.029,-0.016,-0.011,-0.018,102.0,102.0,100.0,13.4,1505.2,325.2,-0.8,1.8,2470.67,13.29,0.019,235.5
2022-03-23T08:49:03,42.805,6.029,-0.023,0.003,0.006,100.0,101.0,101.0,13.4,1505.2,332.7,-0.8,1.8,2470.678,13.29,0.023,277.4
2022-03-23T08:52:03,42.805,6.029,-0.043,0.0,-0.004,100.0,102.0,100.0,13.4,1505.2,327.2,-0.8,1.8,2470.67,13.29,0.043,270.0
2022-03-23T08:55:03,42.805,6.029,-0.001,-0.001,0.009,101.0,102.0,100.0,13.3,1505.2,323.0,-0.8,1.8,2470.695,13.29,0.001,225.0
2022-03-23T08:58:03,42.805,6.029,-0.023,0.003,0.013,102.0,101.0,101.0,13.4,1505.2,324.9,-0.8,1.8,2470.729,13.29,0.023,277.4
2022-03-23T09:04:03,42.805,6.029,-0.03,-0.007,-0.006,100.0,101.0,100.0,13.3,1505.2,329.2,-0.8,1.8,2470.749,13.29,0.03,256.9
2022-03-23T09:07:03,42.805,6.029,-0.008,-0.004,0.03,102.0,102.0,101.0,13.4,1505.2,329.4,-0.7,1.8,2470.745,13.29,0.008,243.4
2022-03-23T09:10:03,42.805,6.029,-0.014,0.0,0.004,102.0,102.0,101.0,13.3,1505.2,326.5,-0.8,1.8,2470.782,13.29,0.014,270.0
2022-03-23T09:13:03,42.805,6.029,-0.05,0.0,-0.024,99.0,102.0,101.0,13.3,1505.2,331.3,-0.7,1.8,2470.74,13.29,0.05,270.0
2022-03-23T09:16:03,42.805,6.029,-0.005,0.006,-0.022,102.0,101.0,101.0,13.4,1505.2,329.2,-0.7,1.8,2470.693,13.29,0.007,320.2
2022-03-23T09:19:03,42.805,6.029,-0.015,0.007,0.003,102.0,101.0,100.0,13.4,1505.2,327.2,-0.8,1.8,2470.712,13.29,0.016,295.0
2022-03-23T09:22:03,42.805,6.029,-0.04,0.003,0.037,101.0,102.0,101.0,13.4,1505.2,323.4,-0.8,1.8,2470.762,13.29,0.04,274.3
2022-03-23T09:25:03,42.805,6.029,-0.014,0.01,0.009,100.0,101.0,100.0,13.4,1505.2,322.9,-0.7,1.8,2470.69,13.29,0.017,305.5
2022-03-23T09:28:03,42.805,6.029,-0.012,-0.012,0.014,102.0,101.0,100.0,13.4,1505.2,327.6,-0.8,1.8,2470.75,13.29,0.016,225.0
